This demonstration page uses our WeatherBlox Daily Observations layout. Learn more.

Left ArrowRight Arrow

Hourly Observations for May 27, 2022

Temp ( °F °C ) Dew Point ( °F °C ) Humidity (%) Winds ( mph kmh ) Pressure ( in mb ) Visibility ( mi km ) Precip ( " mm )
12:52 am 00:52 Cloudy 55 12.8 52 11.1 90 90 NW 8 13 29.89 1012 10 16 0.00 0.00
1:52 am 01:52 Cloudy 55 12.8 52 11.1 90 90 WNW 6 9 29.88 1012 10 16 0.00 0.00
2:52 am 02:52 Cloudy 54 12.2 52 11.1 93 93 NW 8 13 29.88 1012 10 16 0.00 0.00
3:23 am 03:23 Cloudy 54 12.2 51 10.6 90 90 NW 8 13 29.89 1012 10 16 0.00 0.00
3:52 am 03:52 Cloudy 54 12.2 51 10.6 90 90 NW 6 9 29.88 1012 10 16 0.00 0.00
4:28 am 04:28 Cloudy 53 11.7 51 10.6 93 93 WNW 6 9 29.90 1013 10 16 0.00 0.00
4:41 am 04:41 Cloudy 53 11.7 50 10 89 89 WNW 7 11 29.91 1013 10 16 0.00 0.00
4:52 am 04:52 Cloudy 53 11.7 50 10 89 89 WNW 10 17 29.90 1013 10 16 0.00 0.00
5:02 am 05:02 Cloudy 53 11.7 50 10 89 89 WNW 8 13 29.91 1013 10 16 0.00 0.00
5:15 am 05:15 Cloudy 53 11.7 50 10 89 89 WNW 9 15 29.91 1013 10 16 0.00 0.00
5:31 am 05:31 Cloudy 52 11.1 50 10 93 93 WNW 8 13 29.93 1013 10 16 0.00 0.00
5:34 am 05:34 Cloudy 52 11.1 50 10 93 93 WNW 8 13 29.93 1013 10 16 0.00 0.00
5:43 am 05:43 Cloudy 52 11.1 50 10 93 93 WNW 7 11 29.94 1014 10 16 0.00 0.00
5:52 am 05:52 Cloudy 52 11.1 50 10 93 93 WNW 8 13 29.92 1013 10 16 0.00 0.00
6:52 am 06:52 Cloudy 51 10.6 49 9.4 92 92 WNW 9 15 29.95 1014 10 16 0.00 0.00
7:11 am 07:11 Cloudy 50 10 49 9.4 96 96 NW 9 15 29.98 1015 9 14 0.00 0.00
7:52 am 07:52 Mostly Cloudy 52 11.1 50 10 93 93 NW 9 15 29.96 1015 10 16 0.00 0.00
8:15 am 08:15 Partly Cloudy 53 11.7 49 9.4 86 86 NW 9 15 29.98 1015 10 16 0.00 0.00
8:52 am 08:52 Sunny 57 13.9 50 10 78 78 NW 12 19 29.97 1015 10 16 0.00 0.00
9:52 am 09:52 Sunny 60 15.6 51 10.6 72 72 NW 13 20 29.98 1015 10 16 0.00 0.00
10:52 am 10:52 Sunny 63 17.2 51 10.6 65 65 NW 14 22 29.98 1015 10 16 0.00 0.00
11:52 am 11:52 Sunny 66 18.9 52 11.1 61 61 NNW 16 26 29.99 1016 10 16 0.00 0.00
12:52 pm 12:52 Sunny 69 20.6 53 11.7 57 57 NW 14 22 29.98 1015 10 16 0.00 0.00
1:52 pm 13:52 Sunny 71 21.7 54 12.2 55 55 WNW 15 24 29.97 1015 10 16 0.00 0.00
2:52 pm 14:52 Sunny 73 22.8 54 12.2 51 51 NW 12 19 29.96 1014 10 16 0.00 0.00
3:52 pm 15:52 Sunny 74 23.3 53 11.7 48 48 NNW 15 24 29.95 1014 10 16 0.00 0.00
4:52 pm 16:52 Sunny 75 23.9 54 12.2 48 48 N 10 17 29.94 1014 10 16 0.00 0.00
5:52 pm 17:52 Sunny 75 23.9 54 12.2 48 48 WNW 7 11 29.93 1014 10 16 0.00 0.00
6:52 pm 18:52 Sunny 74 23.3 54 12.2 50 50 WNW 5 7 29.93 1013 10 16 0.00 0.00
7:52 pm 19:52 Sunny 71 21.7 55 12.8 57 57 NNW 3 6 29.93 1013 10 16 0.00 0.00
8:52 pm 20:52 Clear 64 17.8 56 13.3 75 75 Calm 29.92 1013 10 16 0.00 0.00
9:52 pm 21:52 Clear 61 16.1 56 13.3 84 84 Calm 29.94 1014 10 16 0.00 0.00
10:52 pm 22:52 Clear 58 14.4 55 12.8 90 90 Calm 29.95 1014 10 16 0.00 0.00
11:52 pm 23:52 Clear 57 13.9 54 12.2 90 90 SSE 3 6 29.94 1014 10 16 0.00 0.00

Powered by AerisWeather